User: anonymous   Login
Location: Unspecified
(0.0000°N, 0.0000°E)
Time: 19:54:25
(UTC+01:00)
Language:

Ariane H10 - Orbit

View from above orbital plane
View from above orbital plane
View from above satellite
View from above satellite

Ground track
Ground track

The orbit data is extracted from the following two-line orbital elements,

1 19622U 88098B   14324.52110770  .00002911  00000-0  11201-2 0  9293
2 19622 003.9460 076.7704 6449101 072.3889 218.8663 03.35952599272215
Epoch (UTC): 20 November 2014 12:30:23
Eccentricity: 0.6449101
inclination: 3.9460°
perigee height: 309 km
apogee height: 24597 km
right ascension of ascending node: 76.7704°
argument of perigee: 72.3889°
revolutions per day: 3.35952599
mean anomaly at epoch: 218.8663°
orbit number at epoch: 27221

The dashed part of the orbit path shows where the satellite is in the earth's shadow,  

DLR